TimePST,TemperatureF,Dew PointF,Humidity,Sea Level PressureIn,VisibilityMPH,Wind Direction,Wind SpeedMPH,Gust SpeedMPH,PrecipitationIn,Events,Conditions,WindDirDegrees,DateUTC
12:56 AM,37.0,32.0,82,30.26,10.0,NNE,3.5,-,N/A,,Clear,20,2013-02-03 08:56:00
1:56 AM,34.0,30.9,89,30.27,10.0,West,3.5,-,N/A,,Clear,270,2013-02-03 09:56:00
2:56 AM,35.1,32.0,89,30.26,10.0,Calm,Calm,-,N/A,,Clear,0,2013-02-03 10:56:00
3:56 AM,32.0,30.0,92,30.26,10.0,Calm,Calm,-,N/A,,Clear,0,2013-02-03 11:56:00
4:56 AM,33.8,30.2,87,30.22,10.0,Calm,Calm,-,N/A,,Clear,0,2013-02-03 12:56:00
5:56 AM,33.1,30.0,89,30.24,10.0,Calm,Calm,-,N/A,,Clear,0,2013-02-03 13:56:00
6:56 AM,32.0,28.9,88,30.24,10.0,NE,5.8,-,N/A,,Clear,50,2013-02-03 14:56:00
7:56 AM,30.0,28.0,92,30.25,10.0,Calm,Calm,-,N/A,,Clear,0,2013-02-03 15:56:00
8:56 AM,34.0,30.9,89,30.26,9.0,SE,3.5,-,N/A,,Clear,140,2013-02-03 16:56:00
9:56 AM,39.0,33.1,79,30.25,10.0,North,6.9,-,N/A,,Clear,350,2013-02-03 17:56:00
10:56 AM,44.1,35.1,71,30.25,10.0,South,3.5,-,N/A,,Clear,170,2013-02-03 18:56:00
11:56 AM,48.0,35.1,61,30.23,10.0,North,5.8,-,N/A,,Clear,10,2013-02-03 19:56:00
12:56 PM,48.9,34.0,56,30.21,10.0,NNE,4.6,-,N/A,,Clear,20,2013-02-03 20:56:00
1:56 PM,51.1,34.0,52,30.18,10.0,East,3.5,-,N/A,,Clear,100,2013-02-03 21:56:00
2:56 PM,52.0,35.1,53,30.17,10.0,Calm,Calm,-,N/A,,Clear,0,2013-02-03 22:56:00
3:56 PM,50.0,33.8,54,30.14,10.0,North,4.6,-,N/A,,Clear,10,2013-02-03 23:56:00
4:56 PM,48.0,34.0,58,30.17,10.0,Calm,Calm,-,N/A,,Clear,0,2013-02-04 00:56:00
5:56 PM,45.0,34.0,65,30.17,10.0,Calm,Calm,-,N/A,,Clear,0,2013-02-04 01:56:00
6:56 PM,41.0,33.1,73,30.16,10.0,South,3.5,-,N/A,,Clear,170,2013-02-04 02:56:00
7:56 PM,39.0,32.0,76,30.16,10.0,Calm,Calm,-,N/A,,Clear,0,2013-02-04 03:56:00
8:56 PM,39.0,33.1,79,30.17,10.0,South,3.5,-,N/A,,Clear,180,2013-02-04 04:56:00
9:56 PM,39.0,33.1,79,30.15,10.0,ESE,3.5,-,N/A,,Partly Cloudy,120,2013-02-04 05:56:00
10:56 PM,39.0,33.1,79,30.15,10.0,Calm,Calm,-,N/A,,Overcast,0,2013-02-04 06:56:00
11:56 PM,37.9,34.0,86,30.16,10.0,Calm,Calm,-,N/A,,Overcast,0,2013-02-04 07:56:00